Torna al catalogo

SNUGLITE 2

SNUGLITE-II

AttivoRadioamatoreSSO
NORAD 52899·PAYLOAD·🇰🇷 South Korea

Lanciato Jun 21, 2022 da Naro Space Center

Loading…

Prossimi Passaggi (prossime 24 ore)

TLE

AggiornatoSource: AMSAT

Epoca: Sep 14, 2026, 03:06 UTC

1 52899U 22065F   26257.12967346  .00000711  00000-0  14331-3 0  9992
2 52899  98.2334  41.8751 0008691 103.2455 256.9717 14.64484178224017

Traccia SNUGLITE 2 in tempo reale con AllMySat

Download on the App Store